Regional Weather Roundup
Issued by NWS

Home | Current Version | Previous Version | Graphics & Text | Print | Product List | Glossary On
Versions: 1 2 3 4 5 6 7 8 9 10 11 12 13 14 15 16 17 18 19 20 21 22 23 24 25 26 27 28 29 30 31 32 33 34 35 36 37 38 39 40 41 42 43 44 45 46 47 48 49 50
000
ASUS45 KABQ 291610
RWRNM
NEW MEXICO REGIONAL WEATHER ROUNDUP
NATIONAL WEATHER SERVICE ALBUQUERQUE NM
1000 AM MDT FRI MAY 29 2015

NOTE: "FAIR" MEANS FEW OR NO CLOUDS BELOW 12,000 FEET AGL WITH NO
       SIGNIFICANT WEATHER OR OBSTRUCTIONS TO VISION.

      THIS PRODUCT IS RELEASED AS TWO VERSIONS.  ONE VERSION NEAR
      THE TOP OF THE HOUR CONTAINING PRELIMINARY DATA FROM ALBUQUERQUE
      AND OTHER STATIONS.  A FINAL VERSION WITH ADDITIONAL DATA IS
      ISSUED ABOUT 10 MINUTES AFTER THE HOUR.

NMZ501-503-504-510>518-291700-
NORTHWEST PLATEAU/NORTHCENTRAL MOUNTAINS

CITY           SKY/WX    TMP DP  RH WIND       PRES   REMARKS
FARMINGTON     SUNNY     62  39  42 CALM      30.20S
LOS ALAMOS     MOSUNNY   61  32  33 NE6       30.27S
SANTA FE       MOSUNNY   65  34  31 N13       30.21S
TAOS           SUNNY     61  34  36 N8        30.26F
ANGEL FIRE     FAIR      55  30  38 CALM      30.30F

$$
NMZ402-403-502-505>509-291700-
WESTCENTRAL MOUNTAINS/SOUTHWEST MOUNTAINS

CITY           SKY/WX    TMP DP  RH WIND       PRES   REMARKS
GALLUP         SUNNY     65  34  31 CALM      30.26R
GRANTS         PTSUNNY   64  34  31 N3        30.26S
SILVER CITY      N/A     77  21  12 W12G17    30.18S

$$
NMZ407-409-411-412-291700-
SOUTHERN DESERTS

CITY           SKY/WX    TMP DP  RH WIND       PRES   REMARKS
LORDSBURG      FAIR      79  27  14 NW8       30.12S
DEMING         SUNNY     80  22  11 NW3       30.10S
LAS CRUCES     SUNNY     82  26  13 NW8       30.10S
HOLLOMAN AFB   MOSUNNY   82  29  14 NW8       30.04S
ALAMOGORDO     MOSUNNY   77  23  13 CALM      30.07R
T OR C         SUNNY     78  29  16 E6        30.12S

$$
NMZ519>523-291700-
CENTRAL VALLEYS/CENTRAL HIGHLANDS

CITY           SKY/WX    TMP DP  RH WIND       PRES   REMARKS
ALBUQUERQUE    PTSUNNY   71  36  27 N10       30.18R
DOUBLE EAGLE   PTSUNNY   68  39  34 NE5       30.20S
MORIARTY ARPT  FAIR      67  36  31 NW5       30.21F
CLINES CORNERS SUNNY     68  35  29 NW9       30.22S
BELEN          FAIR      71  35  26 N5        30.17S
SOCORRO        FAIR      74  34  23 CALM      30.14S

$$
NMZ524>526-539-540-291700-
SOUTHCENTRAL MOUNTAINS

CITY           SKY/WX    TMP DP  RH WIND       PRES   REMARKS
RUIDOSO        MOSUNNY   72  23  16 NW3       30.24S

$$
NMZ527>531-291700-
NORTHEAST HIGHLANDS/NORTHEAST PLAINS

CITY           SKY/WX    TMP DP  RH WIND       PRES   REMARKS
LAS VEGAS      SUNNY     63  39  41 E5        30.21S
RATON          SUNNY     64  46  52 E9        30.17F
CLAYTON        SUNNY     66  49  54 N17       30.14R

$$
NMZ532>537-291700-
EASTCENTRAL PLAINS

CITY           SKY/WX    TMP DP  RH WIND       PRES   REMARKS
TUCUMCARI      SUNNY     70  51  51 CALM      30.09S
CANNON AFB     SUNNY     68  55  62 N8        30.09S
CLOVIS AIRPORT SUNNY     70  54  56 N9        30.07F

$$
NMZ028-029-538-291700-
SOUTHEAST PLAINS

CITY           SKY/WX    TMP DP  RH WIND       PRES   REMARKS
ROSWELL        SUNNY     72  53  51 N5        30.06F
ARTESIA        SUNNY     72  52  49 N7G14     30.07S
CARLSBAD       SUNNY     73  54  51 N10       30.04F
HOBBS          SUNNY     72  54  53 NE6       30.06F


$$


USA.gov is the U.S. government's official web portal to all federal, state and local government web resources and services.